Weather History for KJMS - November, 2012

Change the Weather History Date:

Tuesday, November 6, 2012

  Actual Average Record
Temperature  
Mean Temperature 40 °F 33 °F  
Max Temperature 49 °F 43 °F 70 °F (1904)
Min Temperature 30 °F 23 °F -6 °F (1959)
Degree Days  
Heating Degree Days 25 32  
Month to date heating degree days 187 181  
Since 1 July heating degree days 1153 1148  
Cooling Degree Days 0 0  
Month to date cooling degree days 0 0  
Year to date cooling degree days 575 446  
Moisture  
Dew Point 31 °F    
Average Humidity 69    
Maximum Humidity 85    
Minimum Humidity 53    
Precipitation  
Precipitation 0.00 in 0.02 in 0.40 in (1962)
Month to date precipitation 0.18 0.15  
Year to date precipitation 12.73 17.89  
Sea Level Pressure  
Sea Level Pressure 29.96 in    
Wind  
Wind Speed 18 mph (NW)    
Max Wind Speed 32 mph    
Max Gust Speed 41 mph    
Visibility 10 miles    
Events      
T = Trace of Precipitation, MM = Missing Value Source: NWS Daily Summary

Daily Weather History Graph

Daily Weather History Graph

Search for Another Location

Airport or City:

Trip Planner

Search our weather history database for the weather conditions in past years. The results will help you decide how hot, cold, wet, or windy it might be!

Date:

Astronomy

Nov. 06, 2012 Rise Set
Actual Time 7:25 AM CST 5:10 PM CST
Civil Twilight 6:53 AM CST 5:42 PM CST
Nautical Twilight 6:16 AM CST 6:19 PM CST
Astronomical Twilight 5:41 AM CST 6:54 PM CST
Moon 11:56 PM CST (11/6) 1:14 PM CST (11/6)
Length of Visible Light 10h 49m
Length of Day
9h 45m
Waning Gibbous, 53% of the Moon is Illuminated
Nov 6
Waning Gibbous
Nov 6
Last Quarter
Nov 13
New
Nov 20
First Quarter
Nov 28
Full

Hourly Weather History & Observations

Time (CST) Temp. Windchill Dew Point Humidity Pressure Visibility Wind Dir Wind Speed Gust Speed Precip Events Conditions
12:56 AM 39.9 °F 31.4 °F 33.1 °F 77% 29.82 in 10.0 mi NW 16.1 mph 24.2 mph N/A   Clear
1:56 AM 39.0 °F 29.9 °F 32.0 °F 76% 29.84 in 10.0 mi WNW 17.3 mph 26.5 mph N/A   Clear
2:56 AM 37.9 °F 27.6 °F 30.9 °F 76% 29.85 in 10.0 mi WNW 20.7 mph 28.8 mph N/A   Clear
3:56 AM 37.9 °F 27.1 °F 30.0 °F 73% 29.86 in 10.0 mi NW 23.0 mph 31.1 mph N/A   Scattered Clouds
4:56 AM 39.0 °F 28.5 °F 30.9 °F 73% 29.86 in 10.0 mi WNW 23.0 mph 32.2 mph N/A   Overcast
5:56 AM 39.0 °F 29.0 °F 30.0 °F 70% 29.88 in 10.0 mi WNW 20.7 mph 31.1 mph N/A   Mostly Cloudy
6:56 AM 39.0 °F 29.9 °F 30.0 °F 70% 29.88 in 10.0 mi NW 17.3 mph 33.4 mph N/A   Overcast
7:56 AM 39.0 °F 29.3 °F 30.9 °F 73% 29.91 in 10.0 mi NW 19.6 mph 31.1 mph N/A   Overcast
8:56 AM 39.9 °F 30.0 °F 30.9 °F 70% 29.94 in 10.0 mi NW 21.9 mph 29.9 mph N/A   Clear
9:29 AM 39.2 °F 28.5 °F 30.2 °F 70% 29.91 in 10.0 mi NW 24.2 mph 38.0 mph N/A   Mostly Cloudy
9:49 AM 41.0 °F 30.5 °F 30.2 °F 65% 29.92 in 10.0 mi NNW 26.5 mph 40.3 mph N/A   Scattered Clouds
9:56 AM 42.1 °F 31.7 °F 30.9 °F 65% 29.96 in 10.0 mi NW 27.6 mph 40.3 mph N/A   Partly Cloudy
10:56 AM 44.1 °F 34.6 °F 32.0 °F 63% 29.96 in 10.0 mi NW 26.5 mph 38.0 mph N/A   Clear
11:56 AM 46.0 °F 38.0 °F 33.1 °F 61% 29.97 in 10.0 mi NNW 21.9 mph 34.5 mph N/A   Clear
12:56 PM 46.9 °F - 32.0 °F 56% 29.97 in 10.0 mi NW 25.3 mph 32.2 mph N/A   Overcast
1:56 PM 46.9 °F - 33.1 °F 59% 29.98 in 10.0 mi NNW 26.5 mph 34.5 mph N/A   Mostly Cloudy
2:56 PM 46.9 °F - 30.9 °F 54% 30.00 in 10.0 mi NW 28.8 mph 41.4 mph N/A   Mostly Cloudy
4:56 PM 44.1 °F 36.8 °F 32.0 °F 63% 30.03 in 10.0 mi NNW 16.1 mph - N/A   Clear
5:56 PM 39.9 °F 33.4 °F 30.9 °F 70% 30.06 in 10.0 mi NNW 10.4 mph - N/A   Clear
6:56 PM 37.0 °F 30.4 °F 30.0 °F 76% 30.07 in 10.0 mi NNW 9.2 mph - N/A   Clear
7:56 PM 34.0 °F 28.8 °F 28.9 °F 82% 30.08 in 10.0 mi WNW 5.8 mph - N/A   Clear
8:56 PM 33.1 °F 26.9 °F 28.9 °F 85% 30.09 in 10.0 mi NW 6.9 mph - N/A   Clear
9:56 PM 33.1 °F 26.1 °F 28.9 °F 85% 30.09 in 10.0 mi WNW 8.1 mph - N/A   Clear
10:56 PM 32.0 °F 24.8 °F 28.0 °F 85% 30.09 in 10.0 mi NW 8.1 mph - N/A   Clear
11:56 PM 30.0 °F 23.2 °F 27.0 °F 88% 30.09 in 10.0 mi NW 6.9 mph - N/A   Clear